Location: Rometta
(44.2000°N, 10.0500°E)
Time: 11:57:03
(UTC+00:00)

Cosmos 1818 - Pass Details

Date: 14 May 2021
Orbit: 771 x 802 km, 65.0° (Epoch: 15 June)

Event Time Altitude Azimuth Distance (km) Brightness Sun altitude
Rises 22:33:58 0° 317° (NW) 3,319 7.7 -26.2°
Reaches altitude 10° 22:36:37 10° 308° (NW) 2,384 6.6 -26.3°
Enters shadow 22:41:04 32° 254° (WSW) 1,360 4.7 -26.4°
